Location: Góry Miechowskie
(50.3599°N, 20.1803°E)
Time: 07:57:00
(UTC+00:00)

A-11 Canister half - Pass Details

Date: 22 September 2024
Orbit: 1515 x 1684 km, 47.2° (Epoch: 05 October)

Event Time Altitude Azimuth Distance (km) Brightness Sun altitude
Rises 17:50:59 0° 261° (W) 4,739 12.9 -12.6°
Reaches altitude 10° 17:54:05 10° 260° (W) 3,735 12.1 -13.0°
Maximum altitude 18:03:26 75° 178° (S) 1,575 9.0 -14.5°
Enters shadow 18:10:29 19° 97° (E) 3,001 9.9 -15.5°
Drops below altitude 10° 18:12:38 10° 95° (E) 3,675 - -15.8°
Sets 18:15:39 0° 94° (E) 4,659 - -16.3°
